Satellite: NCUBE2
Catalog number: 28897
Epoch time:      07319.61439652
Element set:     402
Inclination:      098.1149 deg
RA of node:       213.3140 deg
Eccentricity:    0.0017675
Arg of perigee:   004.4294 deg
Mean anomaly:     355.7064 deg
Mean motion:   14.59769516 rev/day
Decay rate:       1.36e-06 rev/day^2
Epoch rev:           10146
Checksum:              307

Satellite: FCAL
Catalog number: 29667
Epoch time:      07319.57496833
Element set:     500
Inclination:      051.6329 deg
RA of node:       017.0496 deg
Eccentricity:    0.0009155
Arg of perigee:   221.5657 deg
Mean anomaly:     138.4660 deg
Mean motion:   15.94682204 rev/day
Decay rate:     3.0199e-04 rev/day^2
Epoch rev:            5210
Checksum:              307

Satellite: FALCON
Catalog number: 30776
Epoch time:      07318.53741011
Element set:    0194
Inclination:      035.4341 deg
RA of node:       021.1627 deg
Eccentricity:    0.0002019
Arg of perigee:   322.7322 deg
Mean anomaly:     037.3254 deg
Mean motion:   15.02799524 rev/day
Decay rate:       2.03e-06 rev/day^2
Epoch rev:           03768
Checksum:              256

Satellite: MAST
Catalog number: 31126
Epoch time:      07318.89460469
Element set:    0185
Inclination:      098.0676 deg
RA of node:       026.6256 deg
Eccentricity:    0.0093795
Arg of perigee:   279.0953 deg
Mean anomaly:     079.9603 deg
Mean motion:   14.53375267 rev/day
Decay rate:      -1.07e-06 rev/day^2
Epoch rev:           03074
Checksum:              332

Satellite: CAPE1
Catalog number: 31130
Epoch time:      07319.24827694
Element set:     164
Inclination:      098.0688 deg
RA of node:       026.4728 deg
Eccentricity:    0.0101902
Arg of perigee:   279.4127 deg
Mean anomaly:     079.5501 deg
Mean motion:   14.51901013 rev/day
Decay rate:       -5.0e-08 rev/day^2
Epoch rev:            3053
Checksum:              275

/EX





More information about the Keps mailing list